| time (UTC) | temp F | wind direction | speed MPH | gust MPH | rain 1hr in | rain 24hr in | rain mn in | humidity % | barometer mb |
| 20260510231100 | 51 | 353 | 0.0 | 1.0 | 0.00 | 1.01 | 0.00 | 97 | 1010.3 |
| 20260510230559 | 51 | 20 | 0.0 | 0.0 | 0.00 | 1.01 | 0.00 | 97 | 1010.2 |
| 20260510225559 | 51 | 20 | 0.0 | 0.0 | 0.00 | 1.01 | 0.00 | 96 | 1010.3 |
| 20260510225100 | 51 | 20 | 0.0 | 0.0 | 0.00 | 1.01 | 0.00 | 96 | 1010.2 |
| 20260510225038 | 51 | 20 | 0.0 | 0.0 | 0.00 | 1.05 | 0.00 | 96 | 1010.2 |
| 20260510225032 | 51 | 20 | 0.0 | 0.0 | 0.00 | 1.02 | 0.00 | 96 | 1010.1 |
| 20260510223558 | 51 | 20 | 0.0 | 0.0 | 0.00 | 1.07 | 0.00 | 96 | 1010.2 |
| 20260510223059 | 51 | 20 | 0.0 | 0.0 | 0.00 | 1.07 | 0.00 | 96 | 1010.2 |
| 20260510222912 | 51 | 20 | 0.0 | 0.0 | 0.00 | 1.07 | 0.00 | 96 | 1010.2 |
| 20260510222100 | 52 | 20 | 0.0 | 0.0 | 0.00 | 1.07 | 0.00 | 96 | 1010.2 |
| 20260510221600 | 52 | 20 | 0.0 | 0.0 | 0.00 | 1.07 | 0.00 | 96 | 1010.1 |
| 20260510221058 | 52 | 20 | 0.0 | 0.0 | 0.00 | 1.07 | 0.00 | 96 | 1010.1 |
| 20260510220559 | 52 | 20 | 0.0 | 0.0 | 0.00 | 1.07 | 0.00 | 96 | 1010.0 |
| 20260510220420 | 52 | 20 | 0.0 | 0.0 | 0.00 | 1.07 | 0.00 | 96 | 1010.1 |
| 20260510215601 | 52 | 20 | 0.0 | 0.0 | 0.00 | 1.07 | 1.07 | 96 | 1010.0 |
| 20260510215102 | 52 | 61 | 0.0 | 1.0 | 0.00 | 1.07 | 1.07 | 96 | 1010.0 |
| 20260510214558 | 53 | 61 | 0.0 | 1.0 | 0.00 | 1.07 | 1.07 | 96 | 1009.9 |
| 20260510214059 | 53 | 61 | 0.0 | 0.0 | 0.00 | 1.07 | 1.07 | 96 | 1009.9 |
| 20260510213559 | 53 | 61 | 0.0 | 0.0 | 0.00 | 1.07 | 1.07 | 96 | 1010.0 |
| 20260510213059 | 53 | 61 | 0.0 | 0.0 | 0.00 | 1.07 | 1.07 | 96 | 1010.0 |
| 20260510212558 | 53 | 61 | 0.0 | 1.0 | 0.00 | 1.07 | 1.07 | 96 | 1010.1 |
| 20260510212100 | 53 | 61 | 0.0 | 1.0 | 0.00 | 1.07 | 1.07 | 96 | 1009.8 |
| 20260510211559 | 53 | 61 | 0.0 | 1.0 | 0.00 | 1.07 | 1.07 | 96 | 1010.1 |
| 20260510211100 | 53 | 61 | 0.0 | 1.0 | 0.00 | 1.07 | 1.07 | 96 | 1009.9 |
| 20260510210558 | 53 | 61 | 0.0 | 1.0 | 0.00 | 1.07 | 1.07 | 96 | 1010.0 |
| 20260510210432 | 53 | 61 | 0.0 | 1.0 | 0.00 | 1.07 | 1.07 | 96 | 1010.0 |
| 20260510205603 | 53 | 61 | 0.0 | 0.0 | 0.00 | 1.07 | 1.07 | 95 | 1009.9 |
| 20260510205057 | 53 | 61 | 0.0 | 1.0 | 0.00 | 1.07 | 1.07 | 95 | 1009.8 |
| 20260510204559 | 53 | 61 | 0.0 | 1.0 | 0.00 | 1.07 | 1.07 | 95 | 1009.8 |
| 20260510204416 | 53 | 61 | 0.0 | 0.0 | 0.00 | 1.07 | 1.07 | 95 | 1009.7 |
| 20260510203601 | 53 | 61 | 0.0 | 0.0 | 0.00 | 1.07 | 1.07 | 95 | 1009.7 |
| 20260510203056 | 53 | 61 | 0.0 | 0.0 | 0.00 | 1.07 | 1.07 | 95 | 1009.7 |
| 20260510202557 | 54 | 61 | 0.0 | 0.0 | 0.00 | 1.07 | 1.07 | 95 | 1009.8 |
| 20260510202057 | 54 | 61 | 0.0 | 0.0 | 0.00 | 1.07 | 1.07 | 95 | 1009.9 |
| 20260510201921 | 54 | 61 | 0.0 | 0.0 | 0.00 | 1.07 | 1.07 | 95 | 1009.8 |
| 20260510201100 | 54 | 61 | 0.0 | 0.0 | 0.00 | 1.07 | 1.07 | 95 | 1009.8 |
| 20260510200555 | 54 | 61 | 0.0 | 1.0 | 0.00 | 1.07 | 1.07 | 95 | 1009.7 |
| 20260510200107 | 54 | 61 | 0.0 | 1.0 | 0.00 | 1.07 | 1.07 | 95 | 1009.7 |
| 20260510195558 | 54 | 62 | 0.0 | 0.0 | 0.00 | 1.07 | 1.07 | 94 | 1009.5 |
| 20260510195327 | 54 | 62 | 0.0 | 0.0 | 0.00 | 1.07 | 1.07 | 94 | 1009.5 |
| 20260510194556 | 54 | 62 | 0.0 | 0.0 | 0.00 | 1.07 | 1.07 | 94 | 1009.5 |
| 20260510194257 | 54 | 62 | 0.0 | 0.0 | 0.00 | 1.07 | 1.07 | 94 | 1009.6 |
| 20260510194211 | 54 | 62 | 0.0 | 0.0 | 0.00 | 1.07 | 1.07 | 94 | 1009.6 |
| 20260510193058 | 54 | 62 | 0.0 | 1.0 | 0.00 | 1.07 | 1.07 | 94 | 1009.4 |
| 20260510192556 | 54 | 62 | 0.0 | 1.0 | 0.00 | 1.07 | 1.07 | 94 | 1009.4 |
| 20260510192055 | 54 | 82 | 0.0 | 1.0 | 0.00 | 1.07 | 1.07 | 94 | 1009.5 |
| 20260510191557 | 55 | 83 | 0.0 | 1.0 | 0.00 | 1.07 | 1.07 | 94 | 1009.6 |
| 20260510191056 | 54 | 272 | 0.0 | 1.0 | 0.00 | 1.07 | 1.07 | 93 | 1009.6 |
| 20260510190556 | 54 | 272 | 0.0 | 2.0 | 0.00 | 1.07 | 1.07 | 93 | 1009.3 |
| 20260510185557 | 54 | 296 | 2.0 | 5.0 | 0.00 | 1.07 | 1.07 | 93 | 1008.9 |
| 20260510185055 | 54 | 298 | 0.0 | 5.0 | 0.00 | 1.07 | 1.07 | 93 | 1008.8 |
| 20260510184658 | 54 | 295 | 2.0 | 5.0 | 0.00 | 1.07 | 1.07 | 93 | 1008.7 |
| 20260510183554 | 54 | 307 | 1.0 | 3.0 | 0.00 | 1.07 | 1.07 | 93 | 1008.9 |
| 20260510183056 | 54 | 299 | 0.0 | 7.0 | 0.00 | 1.07 | 1.07 | 93 | 1009.1 |
| 20260510182554 | 54 | 299 | 1.0 | 7.0 | 0.00 | 1.07 | 1.07 | 93 | 1009.1 |
| 20260510182054 | 54 | 310 | 1.0 | 6.0 | 0.00 | 1.07 | 1.07 | 93 | 1008.8 |
| 20260510181908 | 54 | 317 | 3.0 | 9.0 | 0.00 | 1.07 | 1.07 | 93 | 1008.6 |
| 20260510181054 | 54 | 319 | 3.0 | 9.0 | 0.00 | 1.07 | 1.07 | 93 | 1008.4 |
| 20260510180555 | 55 | 307 | 4.0 | 9.0 | 0.00 | 1.07 | 1.07 | 92 | 1008.5 |
| 20260510175554 | 56 | 306 | 7.0 | 16.0 | 0.00 | 1.07 | 1.07 | 92 | 1008.5 |
| 20260510175417 | 58 | 317 | 7.0 | 16.0 | 0.00 | 1.07 | 1.07 | 91 | 1008.5 |
| 20260510174555 | 60 | 319 | 0.0 | 1.0 | 0.00 | 1.07 | 1.07 | 96 | 1008.1 |
| 20260510174402 | 60 | 353 | 0.0 | 1.0 | 0.00 | 1.07 | 1.07 | 96 | 1007.8 |
| 20260510173553 | 60 | 354 | 0.0 | 0.0 | 0.00 | 1.07 | 1.07 | 96 | 1007.6 |
| 20260510173053 | 60 | 354 | 0.0 | 1.0 | 0.00 | 1.07 | 1.07 | 96 | 1007.3 |
| 20260510172553 | 60 | 354 | 0.0 | 1.0 | 0.00 | 1.07 | 1.07 | 96 | 1007.4 |
| 20260510172054 | 61 | 271 | 0.0 | 0.0 | 0.00 | 1.07 | 1.07 | 96 | 1007.8 |
| 20260510171904 | 61 | 271 | 0.0 | 0.0 | 0.00 | 1.07 | 1.07 | 96 | 1007.8 |
| 20260510171054 | 61 | 271 | 0.0 | 0.0 | 0.00 | 1.07 | 1.07 | 96 | 1007.7 |
| 20260510170605 | 61 | 271 | 0.0 | 0.0 | 0.00 | 1.07 | 1.07 | 96 | 1007.7 |
| 20260510170108 | 61 | 271 | 0.0 | 0.0 | 0.00 | 1.07 | 1.07 | 96 | 1007.4 |
| 20260510165551 | 61 | 271 | 0.0 | 0.0 | 0.00 | 1.07 | 1.07 | 96 | 1007.0 |
| 20260510165051 | 61 | 271 | 0.0 | 0.0 | 0.00 | 1.07 | 1.07 | 96 | 1007.1 |
| 20260510164551 | 60 | 271 | 0.0 | 1.0 | 0.00 | 1.07 | 1.07 | 95 | 1007.2 |
| 20260510164051 | 60 | 271 | 0.0 | 1.0 | 0.00 | 1.07 | 1.07 | 95 | 1007.1 |
| 20260510163554 | 61 | 278 | 0.0 | 0.0 | 0.00 | 1.07 | 1.07 | 96 | 1006.9 |
| 20260510163052 | 61 | 278 | 0.0 | 1.0 | 0.00 | 1.07 | 1.07 | 96 | 1006.6 |
| 20260510162553 | 60 | 278 | 0.0 | 1.0 | 0.00 | 1.07 | 1.07 | 96 | 1006.5 |
| 20260510162052 | 61 | 278 | 0.0 | 1.0 | 0.00 | 1.07 | 1.07 | 96 | 1006.5 |
| 20260510161553 | 61 | 278 | 0.0 | 1.0 | 0.00 | 1.07 | 1.07 | 96 | 1006.6 |
| 20260510161051 | 61 | 278 | 0.0 | 0.0 | 0.00 | 1.07 | 1.07 | 97 | 1006.6 |
| 20260510160556 | 60 | 278 | 0.0 | 3.0 | 0.00 | 1.07 | 1.07 | 96 | 1006.5 |
| 20260510155920 | 60 | 288 | 0.0 | 1.0 | 0.00 | 1.07 | 1.07 | 96 | 1006.4 |
| 20260510155423 | 60 | 288 | 0.0 | 3.0 | 0.00 | 1.07 | 1.07 | 96 | 1006.4 |
| 20260510154553 | 59 | 285 | 0.0 | 5.0 | 0.00 | 1.07 | 1.07 | 96 | 1006.6 |
| 20260510154053 | 59 | 292 | 3.0 | 5.0 | 0.00 | 1.07 | 1.07 | 96 | 1006.7 |
| 20260510153551 | 59 | 293 | 2.0 | 5.0 | 0.00 | 1.07 | 1.07 | 96 | 1006.9 |
| 20260510153050 | 59 | 283 | 2.0 | 4.0 | 0.00 | 1.07 | 1.07 | 96 | 1006.8 |
| 20260510152549 | 59 | 290 | 2.0 | 7.0 | 0.01 | 1.07 | 1.07 | 96 | 1006.7 |
| 20260510152049 | 59 | 298 | 2.0 | 7.0 | 0.15 | 1.07 | 1.07 | 96 | 1006.9 |
| 20260510151911 | 58 | 313 | 2.0 | 5.0 | 0.47 | 1.07 | 1.07 | 96 | 1007.1 |
| 20260510151407 | 58 | 303 | 2.0 | 5.0 | 0.87 | 1.07 | 1.07 | 96 | 1007.2 |
| 20260510150552 | 58 | 309 | 2.0 | 5.0 | 0.93 | 1.07 | 1.07 | 95 | 1007.1 |
| 20260510150104 | 58 | 300 | 3.0 | 5.0 | 1.00 | 1.07 | 1.07 | 95 | 1007.1 |
| 20260510145550 | 58 | 302 | 0.0 | 1.0 | 1.00 | 1.07 | 1.07 | 95 | 1007.3 |
| 20260510145048 | 57 | 316 | 0.0 | 2.0 | 1.00 | 1.07 | 1.07 | 95 | 1007.3 |
| 20260510144911 | 57 | 348 | 1.0 | 2.0 | 1.00 | 1.07 | 1.07 | 95 | 1007.4 |
| 20260510144405 | 57 | 303 | 0.0 | 1.0 | 1.00 | 1.07 | 1.07 | 94 | 1007.6 |
| 20260510143547 | 57 | 298 | 0.0 | 1.0 | 1.00 | 1.07 | 1.07 | 93 | 1007.7 |
| 20260510143049 | 57 | 295 | 0.0 | 4.0 | 1.00 | 1.07 | 1.07 | 92 | 1007.8 |
| 20260510142547 | 57 | 296 | 0.0 | 6.0 | 0.99 | 1.06 | 1.06 | 90 | 1008.0 |
| 20260510142048 | 58 | 314 | 2.0 | 13.0 | 0.85 | 0.92 | 0.93 | 90 | 1008.2 |
| 20260510141547 | 60 | 321 | 3.0 | 13.0 | 0.53 | 0.60 | 0.65 | 87 | 1008.6 |
| 20260510141051 | 64 | 305 | 5.0 | 10.0 | 0.13 | 0.20 | 0.28 | 81 | 1008.2 |
| 20260510140548 | 67 | 278 | 2.0 | 3.0 | 0.07 | 0.14 | 0.14 | 77 | 1007.7 |
| 20260510140100 | 68 | 100 | 0.0 | 4.0 | 0.00 | 0.07 | 0.07 | 72 | 1007.0 |
| 20260510135548 | 68 | 82 | 2.0 | 5.0 | 0.00 | 0.07 | 0.07 | 70 | 1006.6 |
| 20260510135046 | 68 | 114 | 3.0 | 7.0 | 0.00 | 0.07 | 0.07 | 68 | 1006.8 |
| 20260510134548 | 69 | 133 | 3.0 | 9.0 | 0.00 | 0.07 | 0.07 | 67 | 1006.8 |
| 20260510134046 | 69 | 113 | 4.0 | 9.0 | 0.00 | 0.07 | 0.07 | 66 | 1006.8 |
| 20260510133549 | 70 | 117 | 3.0 | 7.0 | 0.00 | 0.07 | 0.07 | 65 | 1007.1 |
| 20260510133048 | 70 | 104 | 4.0 | 9.0 | 0.00 | 0.07 | 0.07 | 65 | 1007.4 |
| 20260510132911 | 70 | 107 | 3.0 | 11.0 | 0.00 | 0.07 | 0.07 | 67 | 1007.3 |
| 20260510132151 | 70 | 127 | 6.0 | 11.0 | 0.00 | 0.07 | 0.07 | 65 | 1007.4 |
| 20260510131048 | 71 | 107 | 4.0 | 10.0 | 0.00 | 0.07 | 0.07 | 64 | 1007.7 |
| 20260510130856 | 71 | 118 | 4.0 | 10.0 | 0.00 | 0.07 | 0.07 | 63 | 1007.6 |
| 20260510130419 | 72 | 89 | 5.0 | 10.0 | 0.00 | 0.07 | 0.07 | 63 | 1007.6 |
| 20260510125546 | 72 | 106 | 1.0 | 10.0 | 0.00 | 0.07 | 0.07 | 64 | 1007.6 |
| 20260510125047 | 71 | 114 | 2.0 | 10.0 | 0.00 | 0.07 | 0.07 | 65 | 1007.7 |
| 20260510124545 | 71 | 49 | 3.0 | 7.0 | 0.00 | 0.07 | 0.07 | 67 | 1007.6 |
| 20260510124047 | 71 | 104 | 3.0 | 11.0 | 0.00 | 0.07 | 0.07 | 68 | 1007.6 |
| 20260510123545 | 71 | 75 | 4.0 | 11.0 | 0.00 | 0.07 | 0.07 | 65 | 1007.7 |
| 20260510123148 | 71 | 124 | 2.0 | 6.0 | 0.00 | 0.07 | 0.07 | 64 | 1007.8 |
| 20260510122044 | 73 | 103 | 2.0 | 10.0 | 0.00 | 0.07 | 0.07 | 66 | 1008.0 |
| 20260510121545 | 73 | 107 | 4.0 | 10.0 | 0.00 | 0.07 | 0.07 | 65 | 1008.1 |
| 20260510121356 | 73 | 354 | 0.0 | 5.0 | 0.00 | 0.07 | 0.07 | 65 | 1008.1 |
| 20260510120546 | 72 | 109 | 0.0 | 7.0 | 0.00 | 0.07 | 0.07 | 66 | 1008.3 |
| 20260510120057 | 72 | 120 | 4.0 | 7.0 | 0.00 | 0.07 | 0.07 | 65 | 1008.3 |
| 20260510115856 | 72 | 66 | 0.0 | 6.0 | 0.00 | 0.07 | 0.07 | 65 | 1008.3 |
| 20260510115044 | 72 | 62 | 2.0 | 6.0 | 0.00 | 0.07 | 0.07 | 67 | 1008.4 |
| 20260510114543 | 72 | 96 | 3.0 | 6.0 | 0.00 | 0.07 | 0.07 | 64 | 1008.3 |
| 20260510114047 | 73 | 123 | 3.0 | 6.0 | 0.00 | 0.07 | 0.07 | 63 | 1008.6 |
| 20260510113542 | 73 | 73 | 0.0 | 4.0 | 0.00 | 0.07 | 0.07 | 67 | 1008.6 |
| 20260510113044 | 72 | 73 | 0.0 | 6.0 | 0.00 | 0.07 | 0.07 | 66 | 1008.7 |
| 20260510112545 | 72 | 100 | 4.0 | 6.0 | 0.00 | 0.07 | 0.07 | 64 | 1008.7 |
| 20260510112044 | 71 | 109 | 2.0 | 6.0 | 0.00 | 0.07 | 0.07 | 67 | 1008.9 |
| 20260510111543 | 71 | 39 | 2.0 | 6.0 | 0.00 | 0.07 | 0.07 | 67 | 1008.8 |
| 20260510111347 | 71 | 103 | 4.0 | 7.0 | 0.00 | 0.07 | 0.07 | 64 | 1008.9 |
| 20260510110542 | 71 | 61 | 2.0 | 7.0 | 0.00 | 0.07 | 0.07 | 64 | 1009.0 |
| 20260510110042 | 71 | 68 | 1.0 | 4.0 | 0.00 | 0.07 | 0.07 | 66 | 1009.0 |
| 20260510105543 | 71 | 110 | 1.0 | 6.0 | 0.00 | 0.07 | 0.07 | 66 | 1009.0 |
| 20260510105042 | 70 | 89 | 2.0 | 6.0 | 0.00 | 0.07 | 0.07 | 70 | 1009.1 |
| 20260510104543 | 71 | 79 | 3.0 | 5.0 | 0.00 | 0.07 | 0.07 | 68 | 1009.2 |
| 20260510104347 | 71 | 89 | 3.0 | 5.0 | 0.00 | 0.07 | 0.07 | 70 | 1009.2 |
| 20260510103543 | 71 | 121 | 3.0 | 5.0 | 0.00 | 0.07 | 0.07 | 70 | 1009.1 |
| 20260510103042 | 71 | 350 | 0.0 | 6.0 | 0.00 | 0.07 | 0.07 | 69 | 1009.2 |
| 20260510102542 | 70 | 76 | 0.0 | 6.0 | 0.00 | 0.07 | 0.07 | 72 | 1009.1 |
| 20260510102356 | 70 | 75 | 1.0 | 5.0 | 0.00 | 0.07 | 0.07 | 72 | 1009.3 |
| 20260510101540 | 69 | 75 | 2.0 | 5.0 | 0.00 | 0.07 | 0.07 | 72 | 1009.3 |
| 20260510101042 | 70 | 90 | 1.0 | 5.0 | 0.00 | 0.07 | 0.07 | 74 | 1009.3 |
| 20260510100540 | 69 | 116 | 3.0 | 5.0 | 0.00 | 0.07 | 0.07 | 71 | 1009.3 |
| 20260510100042 | 69 | 17 | 0.0 | 2.0 | 0.00 | 0.07 | 0.07 | 73 | 1009.3 |
| 20260510095850 | 68 | 72 | 1.0 | 5.0 | 0.00 | 0.07 | 0.07 | 76 | 1009.3 |
| 20260510095043 | 67 | 100 | 2.0 | 7.0 | 0.00 | 0.07 | 0.07 | 75 | 1009.3 |
| 20260510094850 | 68 | 99 | 4.0 | 7.0 | 0.00 | 0.07 | 0.07 | 74 | 1009.2 |
| 20260510094348 | 68 | 96 | 1.0 | 6.0 | 0.00 | 0.07 | 0.07 | 74 | 1009.2 |
| 20260510093541 | 68 | 109 | 3.0 | 6.0 | 0.00 | 0.07 | 0.07 | 74 | 1009.2 |
| 20260510093041 | 67 | 90 | 0.0 | 6.0 | 0.00 | 0.07 | 0.07 | 74 | 1009.1 |
| 20260510092541 | 67 | 96 | 4.0 | 6.0 | 0.00 | 0.07 | 0.07 | 74 | 1009.1 |
| 20260510092040 | 67 | 133 | 1.0 | 4.0 | 0.00 | 0.07 | 0.07 | 77 | 1009.0 |
| 20260510091541 | 66 | 128 | 2.0 | 6.0 | 0.00 | 0.07 | 0.07 | 77 | 1009.1 |
| 20260510091345 | 66 | 99 | 3.0 | 6.0 | 0.00 | 0.07 | 0.07 | 77 | 1009.0 |
| 20260510090540 | 65 | 66 | 3.0 | 6.0 | 0.00 | 0.07 | 0.07 | 77 | 1009.0 |
| 20260510090041 | 66 | 103 | 3.0 | 6.0 | 0.00 | 0.07 | 0.07 | 74 | 1008.9 |
| 20260510085540 | 66 | 117 | 1.0 | 4.0 | 0.00 | 0.07 | 0.07 | 79 | 1009.0 |
| 20260510085042 | 65 | 113 | 1.0 | 5.0 | 0.00 | 0.07 | 0.07 | 80 | 1009.0 |
| 20260510084540 | 64 | 80 | 1.0 | 5.0 | 0.00 | 0.07 | 0.07 | 81 | 1009.0 |
| 20260510084041 | 64 | 106 | 1.0 | 6.0 | 0.00 | 0.07 | 0.07 | 81 | 1009.0 |
| 20260510083552 | 64 | 97 | 3.0 | 6.0 | 0.00 | 0.07 | 0.07 | 79 | 1008.9 |
| 20260510083040 | 64 | 111 | 4.0 | 6.0 | 0.00 | 0.07 | 0.07 | 80 | 1009.0 |
| 20260510082539 | 63 | 99 | 0.0 | 6.0 | 0.00 | 0.07 | 0.07 | 83 | 1008.9 |
| 20260510082038 | 63 | 104 | 4.0 | 6.0 | 0.00 | 0.07 | 0.07 | 82 | 1008.9 |
| 20260510081539 | 62 | 90 | 2.0 | 5.0 | 0.00 | 0.07 | 0.07 | 83 | 1008.8 |
| 20260510081038 | 62 | 90 | 2.0 | 5.0 | 0.00 | 0.07 | 0.07 | 81 | 1008.7 |
| 20260510080539 | 62 | 103 | 3.0 | 5.0 | 0.00 | 0.07 | 0.07 | 84 | 1008.9 |
| 20260510080039 | 61 | 96 | 3.0 | 5.0 | 0.00 | 0.07 | 0.07 | 83 | 1008.8 |
| 20260510075540 | 61 | 102 | 3.0 | 6.0 | 0.00 | 0.07 | 0.07 | 84 | 1008.7 |
| 20260510075038 | 60 | 104 | 4.0 | 6.0 | 0.00 | 0.07 | 0.07 | 84 | 1008.7 |
| 20260510074539 | 60 | 99 | 4.0 | 6.0 | 0.00 | 0.07 | 0.07 | 85 | 1008.6 |
| 20260510074345 | 60 | 120 | 4.0 | 9.0 | 0.00 | 0.07 | 0.07 | 85 | 1008.6 |
| 20260510073538 | 59 | 102 | 3.0 | 9.0 | 0.00 | 0.07 | 0.07 | 88 | 1008.6 |
| 20260510073038 | 59 | 110 | 4.0 | 6.0 | 0.00 | 0.07 | 0.07 | 87 | 1008.5 |
| 20260510072659 | 58 | 125 | 3.0 | 7.0 | 0.00 | 0.07 | 0.07 | 90 | 1008.5 |
| 20260510072630 | 58 | 124 | 3.0 | 7.0 | 0.00 | 0.07 | 0.07 | 88 | 1008.5 |
| 20260510071537 | 58 | 109 | 2.0 | 7.0 | 0.00 | 0.07 | 0.07 | 90 | 1008.4 |
| 20260510071039 | 57 | 107 | 2.0 | 7.0 | 0.00 | 0.07 | 0.07 | 91 | 1008.3 |
| 20260510070537 | 57 | 107 | 4.0 | 7.0 | 0.00 | 0.07 | 0.07 | 91 | 1008.3 |
| 20260510070038 | 56 | 86 | 3.0 | 9.0 | 0.00 | 0.07 | 0.07 | 93 | 1008.4 |
| 20260510065537 | 55 | 82 | 4.0 | 9.0 | 0.00 | 0.07 | 0.07 | 94 | 1008.4 |
| 20260510065343 | 55 | 96 | 3.0 | 6.0 | 0.00 | 0.07 | 0.07 | 94 | 1008.4 |
| 20260510064849 | 55 | 110 | 4.0 | 9.0 | 0.00 | 0.07 | 0.07 | 94 | 1008.4 |
| 20260510064036 | 54 | 102 | 4.0 | 9.0 | 0.00 | 0.07 | 0.07 | 94 | 1008.4 |
| 20260510063538 | 54 | 120 | 3.0 | 7.0 | 0.00 | 0.07 | 0.07 | 94 | 1008.4 |
| 20260510063036 | 54 | 102 | 3.0 | 6.0 | 0.00 | 0.07 | 0.07 | 95 | 1008.4 |
| 20260510062538 | 54 | 104 | 2.0 | 6.0 | 0.00 | 0.07 | 0.07 | 95 | 1008.4 |
| 20260510062036 | 54 | 104 | 3.0 | 9.0 | 0.00 | 0.07 | 0.07 | 95 | 1008.4 |
| 20260510061536 | 54 | 121 | 4.0 | 9.0 | 0.00 | 0.07 | 0.07 | 95 | 1008.5 |
| 20260510061037 | 53 | 109 | 4.0 | 6.0 | 0.00 | 0.07 | 0.07 | 95 | 1008.4 |
| 20260510060536 | 53 | 65 | 2.0 | 10.0 | 0.00 | 0.07 | 0.07 | 95 | 1008.4 |
| 20260510060037 | 53 | 94 | 4.0 | 10.0 | 0.00 | 0.07 | 0.07 | 95 | 1008.5 |
| 20260510055534 | 53 | 106 | 4.0 | 7.0 | 0.00 | 0.07 | 0.07 | 95 | 1008.5 |
| 20260510055036 | 53 | 85 | 3.0 | 6.0 | 0.00 | 0.07 | 0.07 | 95 | 1008.5 |
| 20260510054535 | 53 | 71 | 3.0 | 6.0 | 0.00 | 0.07 | 0.07 | 95 | 1008.5 |
| 20260510054036 | 53 | 107 | 2.0 | 5.0 | 0.00 | 0.07 | 0.07 | 95 | 1008.5 |
| 20260510053535 | 53 | 109 | 2.0 | 5.0 | 0.00 | 0.07 | 0.07 | 95 | 1008.5 |
| 20260510053037 | 53 | 104 | 2.0 | 3.0 | 0.00 | 0.07 | 0.07 | 95 | 1008.5 |
| 20260510052536 | 53 | 93 | 1.0 | 2.0 | 0.00 | 0.07 | 0.07 | 95 | 1008.4 |
| 20260510052035 | 53 | 102 | 1.0 | 3.0 | 0.00 | 0.07 | 0.07 | 95 | 1008.5 |
| 20260510051536 | 53 | 93 | 2.0 | 3.0 | 0.00 | 0.07 | 0.07 | 95 | 1008.5 |
| 20260510051033 | 53 | 87 | 1.0 | 3.0 | 0.00 | 0.07 | 0.07 | 95 | 1008.4 |
| 20260510050535 | 53 | 99 | 1.0 | 4.0 | 0.00 | 0.07 | 0.07 | 95 | 1008.4 |
| 20260510050034 | 53 | 104 | 2.0 | 4.0 | 0.00 | 0.07 | 0.07 | 95 | 1008.4 |
| 20260510045536 | 53 | 94 | 1.0 | 4.0 | 0.00 | 0.07 | 0.07 | 94 | 1008.4 |
| 20260510045033 | 53 | 104 | 1.0 | 2.0 | 0.00 | 0.07 | 0.07 | 94 | 1008.4 |
| 20260510044533 | 53 | 96 | 0.0 | 3.0 | 0.00 | 0.07 | 0.07 | 94 | 1008.4 |
| 20260510044035 | 53 | 103 | 2.0 | 3.0 | 0.00 | 0.07 | 0.07 | 94 | 1008.5 |
| 20260510043839 | 53 | 111 | 1.0 | 3.0 | 0.00 | 0.07 | 0.07 | 94 | 1008.5 |
| 20260510043035 | 53 | 96 | 1.0 | 3.0 | 0.00 | 0.07 | 0.07 | 94 | 1008.5 |
| 20260510042841 | 53 | 96 | 1.0 | 3.0 | 0.00 | 0.07 | 0.07 | 94 | 1008.5 |
| 20260510042034 | 53 | 93 | 1.0 | 4.0 | 0.00 | 0.07 | 0.07 | 94 | 1008.5 |
| 20260510041533 | 53 | 117 | 2.0 | 4.0 | 0.00 | 0.07 | 0.07 | 94 | 1008.6 |
| 20260510041035 | 53 | 113 | 2.0 | 4.0 | 0.00 | 0.07 | 0.07 | 94 | 1008.6 |
| 20260510040532 | 54 | 94 | 2.0 | 5.0 | 0.00 | 0.07 | 0.07 | 94 | 1008.6 |
| 20260510040033 | 54 | 97 | 3.0 | 5.0 | 0.00 | 0.07 | 0.07 | 94 | 1008.6 |
| 20260510035534 | 54 | 127 | 2.0 | 4.0 | 0.00 | 0.07 | 0.07 | 94 | 1008.7 |
| 20260510035032 | 54 | 114 | 2.0 | 5.0 | 0.00 | 0.07 | 0.07 | 94 | 1008.7 |
| 20260510034534 | 54 | 103 | 2.0 | 5.0 | 0.00 | 0.07 | 0.07 | 94 | 1008.7 |
| 20260510034035 | 54 | 102 | 2.0 | 4.0 | 0.00 | 0.07 | 0.07 | 94 | 1008.7 |
| 20260510033534 | 54 | 99 | 0.0 | 5.0 | 0.00 | 0.07 | 0.07 | 94 | 1008.8 |
| 20260510033032 | 54 | 107 | 2.0 | 5.0 | 0.00 | 0.07 | 0.07 | 94 | 1008.8 |
| 20260510032531 | 54 | 94 | 1.0 | 3.0 | 0.00 | 0.07 | 0.07 | 94 | 1009.0 |
| 20260510032032 | 54 | 94 | 0.0 | 2.0 | 0.00 | 0.07 | 0.07 | 94 | 1008.9 |
| 20260510031531 | 54 | 96 | 0.0 | 3.0 | 0.00 | 0.07 | 0.07 | 93 | 1008.9 |
| 20260510031033 | 54 | 97 | 0.0 | 3.0 | 0.00 | 0.07 | 0.07 | 93 | 1009.0 |
| 20260510030837 | 54 | 65 | 1.0 | 3.0 | 0.00 | 0.07 | 0.07 | 93 | 1009.0 |
| 20260510030341 | 54 | 96 | 1.0 | 3.0 | 0.00 | 0.07 | 0.07 | 93 | 1008.9 |
| 20260510025531 | 54 | 109 | 1.0 | 3.0 | 0.00 | 0.07 | 0.07 | 93 | 1009.0 |
| 20260510025035 | 54 | 104 | 1.0 | 4.0 | 0.00 | 0.07 | 0.07 | 93 | 1009.0 |
| 20260510024530 | 54 | 96 | 2.0 | 4.0 | 0.00 | 0.07 | 0.07 | 93 | 1009.0 |
| 20260510024032 | 54 | 114 | 2.0 | 4.0 | 0.00 | 0.07 | 0.07 | 92 | 1009.0 |
| 20260510023531 | 54 | 100 | 1.0 | 2.0 | 0.00 | 0.07 | 0.07 | 92 | 1009.1 |
| 20260510023031 | 54 | 106 | 0.0 | 2.0 | 0.00 | 0.07 | 0.07 | 92 | 1009.1 |
| 20260510022531 | 54 | 96 | 0.0 | 1.0 | 0.00 | 0.07 | 0.07 | 91 | 1009.1 |
| 20260510022031 | 54 | 96 | 0.0 | 1.0 | 0.00 | 0.07 | 0.07 | 91 | 1009.0 |
| 20260510021531 | 54 | 96 | 0.0 | 2.0 | 0.00 | 0.07 | 0.07 | 91 | 1009.0 |
| 20260510021344 | 55 | 96 | 1.0 | 2.0 | 0.00 | 0.07 | 0.07 | 91 | 1009.0 |
| 20260510020531 | 55 | 104 | 1.0 | 2.0 | 0.00 | 0.07 | 0.07 | 91 | 1009.1 |
| 20260510020030 | 55 | 99 | 0.0 | 2.0 | 0.00 | 0.07 | 0.07 | 91 | 1009.2 |
| 20260510015529 | 55 | 93 | 1.0 | 2.0 | 0.00 | 0.07 | 0.07 | 90 | 1009.2 |
| 20260510015031 | 55 | 99 | 0.0 | 5.0 | 0.00 | 0.07 | 0.07 | 90 | 1009.2 |
| 20260510014528 | 55 | 118 | 1.0 | 5.0 | 0.00 | 0.07 | 0.07 | 90 | 1009.2 |
| 20260510014345 | 55 | 116 | 1.0 | 2.0 | 0.00 | 0.07 | 0.07 | 90 | 1009.1 |
| 20260510013530 | 55 | 110 | 1.0 | 2.0 | 0.00 | 0.07 | 0.07 | 90 | 1009.1 |
| 20260510013032 | 55 | 89 | 0.0 | 1.0 | 0.00 | 0.07 | 0.07 | 89 | 1009.1 |
| 20260510012528 | 55 | 87 | 0.0 | 4.0 | 0.00 | 0.07 | 0.07 | 89 | 1009.2 |
| 20260510012031 | 55 | 114 | 1.0 | 4.0 | 0.00 | 0.07 | 0.07 | 89 | 1009.2 |
| 20260510011529 | 55 | 114 | 2.0 | 4.0 | 0.00 | 0.07 | 0.07 | 89 | 1009.3 |
| 20260510011028 | 55 | 102 | 1.0 | 7.0 | 0.00 | 0.07 | 0.07 | 88 | 1009.3 |
| 20260510010529 | 56 | 86 | 4.0 | 11.0 | 0.00 | 0.07 | 0.07 | 88 | 1009.3 |
| 20260510010030 | 56 | 116 | 5.0 | 11.0 | 0.00 | 0.07 | 0.07 | 87 | 1009.2 |
| 20260510005531 | 56 | 110 | 4.0 | 7.0 | 0.00 | 0.07 | 0.07 | 87 | 1009.2 |
| 20260510005029 | 56 | 55 | 2.0 | 10.0 | 0.00 | 0.07 | 0.07 | 86 | 1009.2 |
| 20260510004530 | 56 | 110 | 4.0 | 11.0 | 0.00 | 0.07 | 0.07 | 86 | 1009.3 |
| 20260510004027 | 56 | 93 | 5.0 | 11.0 | 0.00 | 0.07 | 0.07 | 87 | 1009.4 |
| 20260510003837 | 56 | 94 | 5.0 | 9.0 | 0.00 | 0.07 | 0.07 | 87 | 1009.5 |
| 20260510003029 | 56 | 116 | 4.0 | 9.0 | 0.00 | 0.07 | 0.07 | 87 | 1009.6 |
| 20260510002529 | 56 | 137 | 5.0 | 9.0 | 0.00 | 0.07 | 0.07 | 87 | 1009.5 |
| 20260510002028 | 56 | 99 | 3.0 | 7.0 | 0.00 | 0.07 | 0.07 | 89 | 1009.6 |
| 20260510001832 | 56 | 102 | 2.0 | 4.0 | 0.00 | 0.07 | 0.07 | 90 | 1009.7 |
| 20260510001028 | 56 | 123 | 1.0 | 4.0 | 0.01 | 0.07 | 0.07 | 91 | 1009.7 |
| 20260510000540 | 56 | 85 | 2.0 | 4.0 | 0.01 | 0.07 | 0.07 | 91 | 1009.7 |
| 20260510000030 | 55 | 117 | 0.0 | 1.0 | 0.01 | 0.07 | 0.07 | 92 | 1009.8 |
| 20260509235526 | 55 | 106 | 0.0 | 1.0 | 0.01 | 0.07 | 0.07 | 92 | 1009.9 |
| 20260509235026 | 55 | 106 | 0.0 | 1.0 | 0.01 | 0.07 | 0.07 | 92 | 1010.0 |
| 20260509234528 | 55 | 106 | 0.0 | 1.0 | 0.03 | 0.07 | 0.07 | 92 | 1010.1 |
| 20260509234028 | 55 | 106 | 0.0 | 0.0 | 0.05 | 0.07 | 0.07 | 92 | 1009.9 |
| 20260509233835 | 55 | 106 | 0.0 | 0.0 | 0.07 | 0.07 | 0.07 | 92 | 1009.9 |
| 20260509233026 | 55 | 106 | 0.0 | 0.0 | 0.07 | 0.07 | 0.07 | 91 | 1009.9 |
| 20260509232529 | 55 | 106 | 0.0 | 0.0 | 0.07 | 0.07 | 0.07 | 91 | 1009.9 |
| 20260509232026 | 56 | 106 | 0.0 | 0.0 | 0.07 | 0.07 | 0.07 | 91 | 1009.9 |
| 20260509231527 | 56 | 106 | 0.0 | 0.0 | 0.07 | 0.07 | 0.07 | 91 | 1010.0 |